Home   Weather   22°43'N, 71°38'E   Past weeks
Flag for India

Past Weather in 22°43'N, 71°38'E, India — Yesterday and Last 2 Weeks

Now
95 °F

Clear.


Feels Like: 100 °F
Forecast: 108 / 82 °F
Wind: 8 mph from Southwest

Location: Ahmadabad Airport

Current Time: May 25, 2019 at 11:16:14 pm

Latest Report: May 25, 2019 at 10:30 pm


Visibility: 2 mi

Pressure: 29.68 "Hg

Humidity: 41%

Dew Point: 68 °F

Location of 22°43'N, 71°38'ELocation

Past Weather in 22°43'N, 71°38'E — Graph

°F

22°43'N, 71°38'E Temperature Yesterday

Maximum temperature yesterday: 109 °F (at 3:00 pm)
Minimum temperature yesterday: 82 °F (at 6:00 am)
Average temperature yesterday: 96 °F

High & Low Weather Summary for the Past Weeks

 TemperatureHumidityPressure
High109 °F (May 13, 5:00 pm)79% (May 15, 7:00 am)29.86 "Hg (May 15, 7:00 am)
Low79 °F (May 14, 6:00 am)16% (May 13, 4:30 pm)29.62 "Hg (May 13, 4:30 pm)
Average95 °F42%29.74 "Hg
* Reported May 10 9:30 pm — May 25 9:30 pm, 22°43'N, 71°38'E. Weather by CustomWeather, © 2019

Note: Actual official high and low records may vary slightly from our data, if they occured in-between our weather recording intervals... More about our weather records

Advertising

22°43'N, 71°38'E Weather History for the Previous 24 Hours

Scroll right to see more
 ConditionsComfort  
Time TempWeatherWind HumidityBarometerVisibility
9:30 pm
Sat, May 25
100 °FClear.6 mph29%29.65 "Hg2 mi
9:00 pm100 °FClear.No wind27%29.65 "Hg2 mi
8:30 pm100 °FClear.No wind25%29.65 "Hg2 mi
8:00 pm102 °FClear.No wind24%29.62 "Hg2 mi
7:30 pm104 °FClear.No wind23%29.62 "Hg2 mi
7:00 pm104 °FClear.No wind24%29.62 "Hg2 mi
6:30 pm106 °FClear.6 mph23%29.62 "Hg3 mi
6:00 pm108 °FPassing clouds.6 mph22%29.62 "Hg4 mi
5:30 pm108 °FPassing clouds.3 mph20%29.62 "Hg4 mi
5:00 pm108 °FPassing clouds.6 mph22%29.62 "Hg4 mi
4:30 pm108 °FPassing clouds.6 mph22%29.62 "Hg4 mi
4:00 pm108 °FPassing clouds.No wind23%29.65 "Hg4 mi
3:30 pm108 °FPassing clouds.2 mph23%29.65 "Hg4 mi
3:00 pm109 °FScattered clouds.5 mph19%29.65 "Hg4 mi
2:30 pm108 °FPassing clouds.9 mph23%29.68 "Hg4 mi
1:30 pm104 °FClear.5 mph31%29.71 "Hg4 mi
1:00 pm102 °FClear.6 mph33%29.74 "Hg3 mi
12:30 pm102 °FClear.5 mph37%29.74 "Hg3 mi
12:00 pm99 °FClear.7 mph42%29.77 "Hg3 mi
11:30 am99 °FClear.6 mph42%29.77 "Hg3 mi
11:00 am97 °FClear.6 mph44%29.77 "Hg2 mi
10:30 am93 °FClear.5 mph49%29.80 "Hg2 mi
10:00 am93 °FClear.5 mph47%29.80 "Hg2 mi
9:30 am91 °FPassing clouds.8 mph52%29.80 "Hg2 mi
9:00 am90 °FPassing clouds.8 mph55%29.80 "Hg2 mi
8:30 am88 °FScattered clouds.8 mph59%29.80 "Hg2 mi
8:00 am86 °FScattered clouds.8 mph62%29.77 "Hg1 mi
7:30 am86 °FHaze.6 mph66%29.77 "Hg1 mi
7:00 am84 °FHaze.9 mph70%29.77 "Hg1 mi
6:30 am84 °FHaze.7 mph66%29.74 "Hg2 mi
6:00 am84 °FHaze.9 mph62%29.74 "Hg2 mi
5:30 am86 °FClear.9 mph59%29.74 "Hg2 mi
5:00 am86 °FClear.7 mph55%29.71 "Hg2 mi
4:30 am86 °FClear.8 mph55%29.71 "Hg2 mi
4:00 am88 °FClear.8 mph49%29.71 "Hg2 mi
3:30 am88 °FClear.8 mph46%29.71 "Hg2 mi
2:30 am90 °FClear.9 mph41%29.71 "Hg2 mi
2:00 am90 °FClear.7 mph38%29.71 "Hg2 mi
1:30 am91 °FClear.8 mph34%29.71 "Hg2 mi
1:00 am90 °FClear.5 mph52%29.71 "Hg2 mi
12:30 am90 °FClear.6 mph55%29.71 "Hg2 mi
12:00 am91 °FClear.7 mph56%29.71 "Hg2 mi
11:30 pm
Fri, May 24
91 °FClear.7 mph56%29.74 "Hg2 mi
11:00 pm91 °FClear.7 mph52%29.74 "Hg2 mi
Weather by CustomWeather, © 2019

See weather overview